Regional Weather Roundup
Issued by NWS Cleveland, OH

Home | Current Version | Previous Version | Text Only | Print | Product List | Glossary Off
Versions: 1 2 3 4 5 6 7 8 9 10 11 12 13 14 15 16 17 18 19 20 21 22 23 24 25 26 27 28 29 30 31 32 33 34 35 36 37 38 39 40 41 42 43 44 45 46 47 48 49 50

000
ASUS41 KCLE 020600
RWRCLE
OHIO REGIONAL WEATHER ROUNDUP
NATIONAL WEATHER SERVICE WILMINGTON, OH
200 AM EDT TUE JUN 02 2015

NOTE: "FAIR" INDICATES FEW OR NO CLOUDS BELOW 12,000 FEET WITH NO
SIGNIFICANT WEATHER AND/OR OBSTRUCTIONS TO VISIBILITY.

OHZ001>008-015>018-024>027-034-035-043-044-020700-
   NORTHWEST OHIO

CITY           SKY/WX    TMP DP  RH WIND       PRES   REMARKS
DEFIANCE       MOCLDY    47  44  90 CALM      30.20F
FINDLAY        MOCLDY    52  48  86 N7        30.17F
TOLEDO EXPRESS MOCLDY    51  44  77 CALM      30.19F
TOLEDO EXEC    PTCLDY    54  45  71 N3        30.19F
LIMA           PTCLDY    48  46  93 NE3       30.17F
$$

OHZ009>014-019>023-028>033-038-089-020700-
   NORTHEAST OHIO

CITY           SKY/WX    TMP DP  RH WIND       PRES   REMARKS
CLE-HOPKINS    CLOUDY    52  49  89 N7        30.18F
CLE-LAKEFRONT  CLOUDY    54  49  83 N12       30.16F
CUY CO. ARPT   NOT AVBL
LORAIN-ELYRIA  CLOUDY    50  47  89 N6        30.18F
ASHTABULA      CLOUDY    51  49  92 N6        30.17F
AKRON-CANTON   CLOUDY    52  47  83 NE7       30.15F
WOOSTER        NOT AVBL
MANSFIELD      CLOUDY    48  48 100 N7        30.16S FOG
YOUNGSTOWN     CLOUDY    50  48  93 N6        30.15S
$$

OHZ042-051>053-060>062-070>072-077>081-020700-
  SOUTHWEST OHIO

CITY           SKY/WX    TMP DP  RH WIND       PRES   REMARKS
CINC-COVINGTON CLOUDY    54  48  80 NE10      30.13F
CINC-LUNKEN    CLOUDY    55  50  83 NE5       30.15F
HAMILTON       CLOUDY    55  49  80 NE6       30.15F
DAYTON         NOT AVBL
WRIGHT-PAT AFB CLEAR     49  47  93 N3        30.15F
DAYTON GENERAL MOCLDY    50  48  93 N3        30.14S
WILMINGTON     CLOUDY    51  48  89 NE7       30.13F
$$

OHZ036-037-039>041-045>050-054>059-063>069-073>076-082>088-020700-
  CENTRAL AND SOUTHEAST OHIO

CITY           SKY/WX    TMP DP  RH WIND       PRES   REMARKS
COLUMBUS       CLOUDY    52  48  86 NE7       30.13F
OSU AIRPORT    CLOUDY    51  48  89 N7        30.13F
BOLTON FIELD   NOT AVBL
RICKENBACK AFB NOT AVBL
NEWARK         CLOUDY    53  48  83 N3        30.14S
MARION         CLOUDY    49  46  90 N6        30.17S FOG
LANCASTER      CLOUDY    53  49  86 NE7       30.13F
ZANESVILLE     CLOUDY    51  47  86 N3        30.13S
NEW PHILLY     CLOUDY    54  48  80 N3        30.14F
$$



USA.gov is the U.S. government's official web portal to all federal, state and local government web resources and services.